Location: Eagle Observatory
(42.5300°N, 88.2800°W)
Time: 10:59:56
(UTC-06:00)

Hubble Space Telescope - Visible Passes

Search period start: 30 January 2015 00:00
Search period end: 09 February 2015 00:00
Orbit: 544 x 548 km, 28.5° (Epoch: 30 January)

Date Brightness Start Highest point End Pass type
(mag) Time Alt. Az. Time Alt. Az. Time Alt. Az.
30 Jan 3.3 18:45:09 10° S 18:45:57 10° S 18:46:47 10° SSE visible
31 Jan 3.3 18:36:32 10° SSW 18:37:48 11° S 18:39:05 10° SSE visible
01 Feb 3.3 18:28:10 10° SSW 18:29:39 12° S 18:31:08 10° SSE visible
02 Feb 3.3 18:19:58 10° SSW 18:21:29 12° S 18:23:00 10° SSE visible
03 Feb 3.4 18:11:56 10° SSW 18:13:19 11° S 18:14:43 10° SSE visible
04 Feb 3.5 18:04:03 10° SSW 18:05:09 11° S 18:06:15 10° S visible
